Theta_e
334 331 324 324 325 321 316 318 300 307 304 296 298 301 300 310 310 307 308 310 306 314 315 321 315 320 313 313 310 311 313 308 316 304 304 319 329 332 336 332 333 335 336 340 339 339 340 342 344 348 348 348 347 347 347 347 346 345 345 345 345 343 343 343 342 340 340 340 340 340 339 341 341 342 342 343 343 343 344 345 346 346 346 346 345 345 345 345 345 344 344 343 342 342 342 342 342
330 327 325 323 321 317 308 315 303 300 300 297 298 302 303 308 308 307 306 309 311 315 317 315 314 315 318 314 313 314 311 314 317 317 325 330 328 330 336 332 334 334 336 340 339 339 340 342 343 346 347 347 347 347 346 346 347 345 345 343 343 342 341 340 340 339 339 340 339 339 339 339 340 340 342 342 343 343 345 345 346 346 346 346 346 345 345 344 344 343 343 342 341 341 341 340 341
328 325 322 321 318 314 312 312 296 297 294 292 297 301 307 304 305 309 310 311 311 313 313 315 317 315 315 316 307 307 304 319 317 322 323 327 325 327 333 334 333 333 337 340 340 339 340 341 342 345 347 347 346 346 345 345 345 343 343 341 341 342 341 340 340 338 338 339 339 339 338 339 340 341 342 343 343 344 345 345 346 346 345 346 345 345 344 343 343 343 342 341 340 340 340 340 340
328 324 320 318 309 318 305 305 299 296 293 295 296 305 305 306 306 308 314 316 313 312 312 309 306 313 310 306 309 312 311 314 320 323 324 325 323 328 330 332 334 334 336 338 341 340 341 342 341 344 346 346 346 345 344 343 343 342 342 342 340 340 341 341 340 338 339 340 339 338 338 339 340 341 342 343 344 344 344 345 345 345 346 345 345 344 344 343 343 342 342 340 340 339 339 339 339
323 325 322 316 312 304 304 301 299 299 292 296 294 306 304 307 308 310 311 313 313 313 313 309 307 311 312 309 310 307 309 313 318 321 324 324 326 331 331 335 333 333 335 338 340 340 341 340 340 344 345 345 345 344 343 343 342 342 341 342 341 339 339 338 338 339 339 339 339 338 339 338 340 341 342 343 344 344 344 345 344 344 344 344 343 342 342 343 342 341 340 340 339 338 337 338 338
320 320 321 316 308 317 306 298 296 296 299 302 298 302 305 306 307 308 308 309 313 312 313 311 306 306 307 309 315 309 318 308 321 322 325 326 327 333 332 337 331 332 335 336 339 340 342 338 340 343 345 345 344 343 343 343 342 341 341 342 342 340 340 340 339 339 339 339 339 337 338 339 340 341 342 343 344 344 345 345 344 344 343 343 342 340 341 340 340 340 339 338 337 337 336 336 336
317 315 315 315 311 313 298 297 296 297 300 305 301 304 306 306 307 307 306 307 314 310 317 309 310 309 304 309 312 315 319 320 319 321 324 326 328 332 334 330 333 332 334 333 338 338 341 338 340 342 345 345 343 343 342 342 341 341 341 341 341 341 341 340 340 340 340 340 339 338 338 339 340 341 342 343 344 344 345 344 344 343 341 341 341 339 341 340 339 339 337 336 336 336 336 336 336
322 311 311 303 302 302 296 297 297 300 301 305 306 305 305 309 306 306 306 304 304 304 308 312 310 307 305 311 304 315 319 321 321 322 324 325 328 329 333 329 331 332 333 333 339 338 336 337 339 342 344 344 343 342 342 341 341 340 341 341 341 342 341 340 340 340 338 338 338 337 338 339 340 341 342 343 343 344 344 344 343 342 342 341 340 340 340 339 338 337 336 335 335 335 335 335 335
317 312 322 306 299 302 297 296 298 303 303 305 306 309 310 308 308 307 305 307 307 307 306 309 312 304 307 306 305 314 316 320 320 321 323 326 328 333 335 332 329 334 334 335 337 338 337 336 338 339 342 343 343 342 341 341 340 340 340 341 341 341 341 340 340 339 338 338 338 338 338 340 340 341 342 343 343 344 343 343 342 341 339 340 340 340 339 337 336 335 335 335 334 334 334 334 334
312 312 303 302 302 295 296 297 296 300 302 305 305 307 308 309 308 308 305 304 305 307 307 309 311 305 309 305 306 313 317 324 325 323 324 327 332 333 336 333 332 333 331 331 336 337 337 333 336 336 338 340 342 341 342 341 341 340 340 340 340 341 341 340 339 339 339 339 339 339 339 340 341 341 342 343 344 343 342 341 340 339 339 340 339 338 337 336 335 335 334 333 333 333 333 332 333
306 311 313 300 296 294 294 296 298 301 302 305 306 308 309 308 307 306 307 305 307 305 308 313 306 305 305 305 306 319 322 323 321 319 323 325 330 329 328 330 332 335 331 334 334 337 337 336 331 333 334 335 337 337 338 338 339 339 339 340 340 341 340 340 339 339 339 339 339 339 339 340 341 342 343 343 342 341 341 340 340 339 339 339 339 338 336 335 335 334 333 333 332 332 331 331 331
305 305 307 297 295 295 296 296 298 300 303 304 303 307 308 307 306 304 304 303 304 305 304 310 305 308 306 306 309 315 319 319 321 323 324 325 326 329 331 329 332 331 331 332 335 335 336 336 334 329 331 332 333 334 335 335 337 338 339 340 340 340 340 340 340 339 340 340 340 340 340 341 341 342 342 342 341 340 340 337 335 338 338 337 336 336 336 335 335 334 333 332 332 331 331 330 330
306 309 302 298 297 298 299 297 298 300 300 301 303 307 308 306 304 304 309 308 307 305 305 308 309 308 302 303 312 316 316 319 319 322 324 323 327 328 330 327 332 333 332 332 332 333 336 335 336 334 333 329 330 331 332 332 335 336 337 337 338 338 339 339 339 339 340 340 339 339 338 339 340 340 341 341 340 339 337 337 337 337 337 337 336 336 335 335 334 333 333 332 331 331 330 329 328
307 308 305 297 302 299 298 297 299 297 298 303 306 312 311 308 305 305 306 304 304 304 309 310 309 308 305 306 307 311 312 317 318 320 322 324 326 326 328 326 328 328 332 331 331 332 334 335 336 336 336 334 334 330 328 328 330 333 332 334 335 336 336 337 337 337 337 336 335 334 334 335 338 339 338 338 338 336 334 334 335 337 337 336 335 335 334 334 333 332 331 331 330 330 329 328 326
307 310 304 300 298 298 300 296 297 297 297 303 305 305 306 307 309 307 305 303 303 308 310 312 311 306 301 303 302 309 313 316 318 322 322 323 324 325 326 326 327 327 327 328 329 331 332 335 335 335 335 336 336 334 333 330 326 327 328 330 331 332 333 333 333 333 332 331 330 329 329 332 332 333 333 334 334 333 332 333 331 336 336 335 335 334 333 333 332 331 330 330 329 328 327 326 324
312 309 305 297 295 296 298 298 300 298 298 304 305 306 304 306 307 305 305 306 305 309 311 305 311 305 307 305 307 311 314 317 319 320 321 323 324 324 324 324 324 325 325 326 328 330 332 334 334 334 335 335 336 335 335 334 326 323 325 326 327 327 328 329 328 328 327 326 324 325 326 328 329 330 331 331 329 329 330 329 329 333 335 335 334 333 333 332 331 330 329 329 328 326 324 322 321
316 311 300 298 294 296 298 298 300 294 301 304 307 303 301 302 307 308 310 309 304 305 307 308 306 311 307 308 310 315 315 317 318 320 319 320 320 320 321 322 323 323 327 325 326 328 330 332 333 332 332 334 334 335 334 332 331 324 324 323 323 324 324 325 324 323 322 321 322 323 325 330 329 329 329 328 326 327 326 326 326 330 334 333 333 331 331 331 330 329 328 327 324 321 318 317 317
311 302 299 296 298 297 301 300 301 304 301 303 305 305 304 302 305 306 308 306 305 306 305 307 309 308 310 312 314 314 315 316 317 318 317 318 319 317 318 319 321 320 322 323 325 326 328 330 330 332 332 332 333 333 332 331 331 326 331 328 326 325 322 322 322 324 320 325 322 325 329 328 328 328 326 321 324 323 323 322 324 329 332 332 331 331 330 330 329 328 327 325 321 319 317 312 313
305 302 300 296 299 301 305 305 305 304 303 302 304 306 305 303 305 307 303 302 304 303 304 306 305 307 309 310 313 313 314 315 315 315 316 316 317 317 317 318 319 321 322 323 324 326 327 328 330 330 330 331 332 331 332 330 332 330 332 331 329 325 323 323 326 326 327 328 325 327 325 327 327 326 325 323 322 321 322 322 322 325 327 329 330 329 329 328 328 326 324 322 320 319 314 313 314
308 303 297 299 303 304 306 307 306 307 307 304 306 306 305 306 306 308 303 302 303 301 301 303 304 304 307 311 313 313 313 314 314 313 313 315 316 316 317 319 319 320 322 323 324 326 326 327 328 329 329 330 330 330 331 331 331 331 331 330 329 328 325 325 325 326 326 325 326 326 326 326 325 324 316 314 315 321 321 319 319 320 322 324 325 326 325 323 323 323 320 318 314 311 309 309 309
307 304 299 301 305 303 305 307 308 309 310 303 303 305 304 305 306 306 304 301 301 303 305 304 304 305 306 308 311 314 313 313 313 313 313 313 314 316 316 318 319 321 322 324 324 325 326 326 327 327 328 329 328 328 328 329 331 331 330 329 328 326 326 326 324 325 324 325 325 325 325 324 323 322 321 322 323 321 320 320 322 323 322 321 318 318 317 317 315 313 312 310 308 308 308 309 310
307 302 305 305 305 302 306 308 307 306 306 308 307 302 303 307 308 305 304 299 299 303 306 307 307 308 308 308 309 312 312 312 312 313 313 312 312 313 316 316 319 321 323 322 323 324 325 326 326 326 327 327 327 327 327 327 330 329 328 328 327 325 326 325 324 322 322 322 320 321 320 321 322 321 322 322 321 321 320 320 319 320 320 318 316 314 313 312 311 310 309 309 309 309 309 309 308
300 304 305 306 306 303 306 306 306 304 303 302 302 304 304 304 303 306 305 303 304 308 308 308 309 309 310 309 309 309 308 308 308 311 313 312 312 313 314 316 316 317 320 321 323 324 325 326 326 326 326 326 327 328 328 327 328 329 328 327 326 324 324 323 321 321 321 321 320 318 318 319 320 320 321 321 320 321 320 318 318 317 316 315 313 312 310 309 308 307 306 306 306 306 306 305 306
304 299 304 303 305 302 305 305 306 304 304 303 305 306 302 303 298 305 303 305 307 308 309 309 309 310 310 308 308 308 308 308 308 308 309 309 312 314 314 315 317 318 319 321 322 323 322 324 325 325 325 326 326 327 327 327 327 327 327 324 324 322 323 322 321 321 320 320 317 318 316 319 320 319 319 319 319 320 318 317 316 315 314 313 311 310 308 307 306 305 304 304 305 305 305 304 305
302 301 304 304 305 303 303 304 303 304 304 304 306 302 302 302 301 303 301 305 307 307 308 308 308 308 308 308 308 308 308 308 308 308 309 309 310 311 314 314 317 318 318 320 321 322 323 324 324 324 324 324 326 326 326 326 327 327 325 324 324 319 323 322 321 320 319 318 317 318 316 317 318 318 317 317 317 316 314 313 313 312 311 309 309 308 308 306 306 305 305 304 305 305 305 305 305
303 302 303 302 301 302 304 304 303 303 302 305 302 300 301 302 304 299 301 303 305 307 306 307 306 306 306 306 307 307 307 308 308 307 307 309 310 309 310 310 312 313 317 319 320 320 322 323 323 323 323 323 323 324 324 324 326 325 325 323 323 319 322 322 321 319 317 317 318 318 317 318 317 317 316 314 314 311 310 310 309 308 308 308 308 307 307 307 306 305 304 304 305 305 305 305 305
304 302 301 298 299 300 301 299 300 301 301 302 298 298 299 301 299 294 302 304 305 304 304 305 305 304 304 305 305 306 305 305 304 305 306 310 310 309 313 313 312 312 314 317 320 320 320 321 322 322 323 321 322 323 323 324 325 324 324 323 322 321 322 321 320 318 317 317 318 317 317 317 316 315 313 313 312 310 308 308 307 306 305 305 306 305 305 306 306 304 304 304 304 304 304 305 305
301 301 299 298 298 299 299 299 298 299 298 300 299 297 300 300 299 296 301 304 304 302 302 303 303 302 303 303 302 303 303 304 304 304 303 305 306 309 311 311 312 312 313 315 318 319 321 321 321 322 322 322 320 321 322 323 324 324 324 323 321 321 322 320 319 317 316 317 317 315 316 315 315 314 313 312 311 309 308 307 306 305 304 303 303 301 302 302 302 303 304 305 304 304 302 303 304
299 299 293 295 296 295 298 296 298 299 297 300 300 296 294 295 293 298 300 302 302 301 300 300 301 302 302 302 301 301 302 302 303 303 304 304 306 306 306 307 308 309 312 314 314 315 315 319 320 320 321 320 320 319 321 322 322 324 323 322 320 321 320 318 318 317 316 317 316 315 315 314 313 313 312 312 310 309 308 307 306 306 304 303 301 301 301 300 299 299 300 301 301 302 302 301 303
299 297 294 293 292 292 296 298 298 297 298 300 299 285 289 293 296 298 300 299 299 298 299 299 300 301 300 300 299 298 302 301 301 300 299 299 299 299 299 300 301 301 302 307 311 312 315 320 321 321 320 321 319 319 318 320 320 321 321 322 320 318 318 317 317 317 316 316 315 316 314 314 312 312 312 311 310 309 308 307 306 305 303 302 301 300 299 299 298 298 298 299 300 300 300 299 299
292 295 295 289 287 287 295 296 297 294 299 298 298 286 288 293 296 298 300 299 298 296 296 298 299 299 298 298 298 300 301 301 297 297 297 297 297 297 297 298 298 299 300 301 302 308 312 314 317 318 317 318 317 317 317 317 317 317 316 319 319 318 316 315 316 315 315 314 315 313 312 312 312 311 311 310 309 308 306 305 304 302 301 301 301 300 299 298 298 298 298 298 298 298 298 298 298
295 290 286 290 287 289 294 297 296 291 295 298 295 286 288 292 295 297 298 299 298 295 296 296 297 297 297 297 296 297 298 298 295 294 295 295 295 295 295 295 297 298 299 299 301 303 307 311 313 315 315 316 316 316 317 316 316 316 315 313 315 317 316 315 314 313 312 310 310 310 310 308 308 308 309 309 308 307 306 305 303 301 301 301 301 300 299 297 298 298 297 298 296 296 296 296 296
292 289 286 285 287 288 289 294 295 296 295 296 293 286 289 290 294 296 297 297 297 295 295 296 297 297 297 297 297 296 298 293 293 292 292 293 293 293 294 295 296 297 298 299 299 301 303 307 311 312 313 314 314 316 316 315 314 315 317 315 313 312 313 314 313 313 311 310 310 309 308 307 306 306 306 306 305 306 306 304 300 301 301 300 300 298 297 297 297 296 296 297 297 295 295 295 295
286 290 285 288 285 286 284 291 294 295 294 290 293 288 289 291 294 295 296 296 295 294 294 296 296 296 297 297 297 295 293 291 290 290 290 291 292 292 293 295 294 295 296 298 299 300 301 304 307 310 312 313 313 314 314 313 314 314 314 313 312 312 310 310 310 310 309 308 308 307 307 306 305 306 306 305 304 305 304 302 300 300 300 299 298 297 295 296 296 295 294 295 296 295 294 294 293
283 284 284 285 287 287 286 285 291 292 293 290 290 289 289 291 293 294 295 296 295 294 294 294 295 295 296 295 294 293 291 289 289 289 289 290 290 291 291 292 293 293 295 297 299 302 302 304 305 308 310 311 311 313 312 313 313 314 312 309 309 310 309 308 307 308 307 306 306 306 305 304 304 304 304 304 304 303 301 300 299 299 299 298 298 296 295 295 295 294 294 293 295 294 293 292 292
287 287 286 286 283 284 285 289 292 292 289 288 288 286 288 289 291 292 294 295 294 294 294 295 295 295 293 292 291 290 289 288 289 289 289 289 289 290 290 291 291 292 294 295 296 299 302 304 305 306 309 310 311 310 310 309 311 309 307 306 305 304 305 306 306 306 305 305 305 304 303 303 302 303 303 302 302 301 300 299 298 298 298 298 297 296 294 294 294 293 293 293 291 290 292 292 291
289 288 287 286 285 286 289 289 291 293 289 287 288 288 288 289 291 292 294 295 294 294 293 293 294 291 290 289 288 288 288 287 288 288 288 288 288 289 289 290 290 291 292 293 295 297 300 303 304 305 307 309 308 308 308 308 308 307 306 305 304 304 301 301 300 301 303 303 302 302 301 301 300 300 300 300 300 299 298 298 298 297 297 297 296 296 294 294 294 293 293 292 290 289 288 289 290
289 287 286 284 286 283 288 288 291 293 288 286 289 288 288 289 291 292 294 293 292 292 292 292 289 289 287 287 286 286 286 288 287 286 286 286 287 288 288 288 289 289 290 291 293 296 299 302 304 305 306 306 306 308 309 309 308 306 305 304 303 300 299 299 298 299 299 300 300 300 299 299 299 299 298 299 298 298 296 297 296 296 296 295 295 295 294 293 293 292 292 290 290 289 287 289 289
289 285 284 283 284 287 289 289 291 291 289 286 288 286 287 289 290 292 292 292 292 289 289 288 287 286 286 285 285 284 285 284 284 285 285 285 286 286 286 287 288 288 289 290 292 294 298 301 302 303 305 305 307 309 309 307 307 306 306 305 301 298 299 299 298 298 298 298 298 298 298 298 297 296 297 297 297 297 296 296 295 295 295 294 294 292 292 292 292 291 290 289 287 288 287 289 287
286 284 282 281 285 283 280 287 289 290 288 285 287 285 286 289 290 291 293 293 289 288 287 287 286 284 283 283 283 283 283 282 282 283 283 284 284 285 285 285 286 287 288 289 290 292 296 296 296 299 303 304 304 303 301 302 300 299 299 300 299 298 295 296 297 297 297 296 295 296 296 296 296 295 295 295 295 295 294 294 294 294 293 293 293 291 291 291 291 291 290 289 288 286 285 286 288
287 286 284 283 284 285 285 285 288 290 290 290 287 284 284 286 286 288 289 288 287 286 286 285 285 285 285 284 283 283 282 282 281 282 282 282 283 283 284 284 285 285 286 287 289 290 292 294 295 295 298 301 302 302 302 301 299 298 297 296 296 295 295 295 295 294 295 294 294 294 294 295 295 294 294 294 293 293 294 293 293 292 292 292 291 291 290 290 290 290 290 289 288 286 284 284 286
283 287 286 286 286 285 286 287 285 283 282 287 285 277 278 282 285 287 287 286 284 285 283 282 283 283 283 282 282 282 283 282 282 281 281 282 282 283 283 283 283 284 284 286 287 289 290 291 292 293 295 295 296 297 299 302 300 298 297 296 294 294 292 292 292 292 292 293 294 295 294 294 293 293 293 293 293 293 292 292 292 291 290 290 290 289 289 289 288 288 288 287 286 286 285 284 284
282 283 289 288 287 287 286 285 283 279 277 282 287 277 274 282 283 285 286 284 283 283 282 282 282 282 282 281 281 281 281 281 282 282 281 281 281 281 282 282 282 282 284 285 286 287 288 289 290 290 290 291 292 293 293 296 299 299 299 298 298 297 295 294 295 294 294 295 294 293 293 293 293 293 292 292 292 292 292 291 290 290 290 289 289 289 288 288 288 287 287 286 285 286 285 283 283
281 289 290 288 287 285 285 284 283 281 285 285 286 283 277 276 282 285 287 284 282 281 281 281 281 281 280 280 281 280 280 280 280 280 280 281 281 281 281 281 282 282 283 284 284 286 286 287 288 288 288 289 289 290 290 291 294 298 298 298 298 298 297 295 295 294 294 294 293 292 292 292 293 293 292 292 291 291 291 290 290 289 289 288 288 288 287 288 287 288 287 287 286 285 284 284 283
285 289 290 288 288 286 286 283 282 282 280 277 281 284 277 277 281 285 286 283 281 281 280 280 280 280 280 280 280 280 280 280 280 279 279 280 280 280 281 280 281 282 282 282 283 284 285 285 286 286 286 286 287 287 288 288 290 291 292 296 294 293 292 292 292 292 291 292 292 292 291 292 292 292 292 292 291 291 290 289 289 288 288 287 287 287 287 287 287 286 286 285 285 285 285 284 284
289 289 291 290 289 287 286 282 280 280 278 273 278 281 275 275 281 280 283 282 281 280 280 279 280 280 279 279 279 280 280 280 280 280 280 280 280 280 280 280 280 280 281 282 282 282 283 283 283 284 284 285 285 285 285 285 286 288 289 289 291 292 293 293 293 292 291 291 291 291 291 291 291 291 292 291 290 290 289 289 288 288 288 287 286 286 286 286 286 286 286 285 285 284 285 285 284
292 290 287 284 284 283 283 282 281 279 273 276 280 281 279 272 278 279 280 280 282 280 279 279 279 279 279 279 279 279 279 279 279 279 279 279 280 279 279 278 279 279 280 280 280 280 280 281 281 280 281 283 283 283 282 282 283 284 285 285 285 285 288 289 289 289 289 290 289 290 290 290 291 290 290 290 290 289 288 288 288 288 287 286 286 285 285 286 286 286 286 285 285 285 284 284 285
289 283 282 281 280 281 280 279 281 273 271 278 280 280 281 272 277 280 280 281 282 280 278 278 278 278 278 278 278 278 278 278 278 278 277 278 278 278 278 277 277 277 277 278 278 279 279 278 278 278 279 280 280 281 280 280 280 280 281 282 282 283 283 284 283 283 285 286 288 287 289 288 287 287 288 287 287 288 287 287 287 286 286 286 285 285 285 285 286 285 285 285 285 285 285 284 283
285 282 281 275 273 274 271 275 271 273 271 278 280 281 277 277 279 281 281 281 282 283 281 280 278 277 277 277 278 278 278 277 277 276 276 276 276 276 276 276 276 276 276 276 276 277 277 277 277 276 276 277 278 278 278 278 278 278 278 279 280 281 280 280 281 280 282 282 282 282 283 284 285 286 286 286 286 286 286 285 285 285 284 285 285 285 285 285 285 285 284 284 284 284 284 284 283
283 280 278 274 271 270 268 271 274 274 278 281 280 281 276 279 279 282 281 281 281 280 281 280 279 278 277 277 277 277 277 277 276 276 276 275 275 276 275 275 275 275 275 275 275 276 276 275 275 275 275 275 276 276 277 276 276 276 277 277 278 278 278 278 278 278 279 280 280 279 280 280 281 281 282 282 284 287 287 286 285 285 285 285 285 285 284 284 284 284 284 284 284 284 284 284 283
283 285 281 278 276 272 267 271 268 271 273 277 280 274 272 272 274 279 279 279 279 278 278 278 278 278 277 277 277 277 276 276 276 275 275 275 275 275 275 275 275 274 274 275 275 275 275 274 274 274 274 274 274 275 275 275 275 275 275 276 276 277 277 277 277 278 278 278 278 278 278 279 279 279 280 280 282 282 286 287 286 286 285 285 285 285 285 285 284 283 283 283 283 284 283 284 283
285 285 285 279 277 280 273 275 274 274 273 273 275 274 277 275 278 278 278 278 277 277 277 277 276 277 277 276 276 276 275 275 275 275 275 275 275 275 275 274 274 274 274 274 274 274 274 274 274 274 273 274 274 274 274 274 274 274 274 274 275 276 276 276 276 276 277 277 277 277 277 278 278 279 279 279 280 281 281 283 285 285 285 284 284 284 284 284 283 283 282 283 283 285 283 283 283
281 283 278 280 284 282 277 278 280 278 275 272 278 276 279 277 277 276 277 276 276 276 276 276 276 276 276 275 275 275 275 275 275 274 274 274 274 274 274 274 274 274 274 273 274 274 274 273 273 273 273 273 273 273 273 274 274 273 273 273 274 274 274 274 274 274 275 276 277 277 277 277 278 278 279 279 279 279 280 281 281 283 285 284 284 284 283 283 283 282 282 282 281 282 283 282 282
282 276 280 286 286 285 279 271 274 273 269 271 275 273 273 274 271 275 275 275 274 275 275 276 276 276 275 275 275 274 274 274 274 274 274 274 274 274 274 274 273 273 273 273 273 274 274 274 273 273 272 272 273 273 273 273 273 273 272 273 273 273 273 273 273 273 274 274 275 276 276 276 276 277 278 278 278 278 279 279 279 280 281 282 283 284 284 284 284 283 283 283 283 283 282 282 282
284 281 284 278 274 273 280 275 268 268 268 269 273 275 275 276 275 273 274 274 274 275 275 275 275 275 275 274 274 274 274 274 274 274 274 274 274 274 274 273 274 273 273 273 274 274 273 273 273 273 272 272 273 273 273 273 273 272 272 272 272 272 272 272 273 273 273 273 273 274 274 275 275 276 276 276 277 277 277 278 278 278 278 279 280 281 282 283 284 283 284 283 283 283 282 281 281
289 289 282 285 280 277 274 276 275 274 269 269 270 274 271 277 276 276 275 276 275 275 274 274 275 275 274 274 274 274 274 274 274 273 273 273 273 273 273 273 273 273 273 273 273 273 273 273 272 272 272 272 272 272 272 272 272 272 272 272 272 272 272 272 272 272 272 271 272 272 273 274 274 275 275 275 275 275 276 276 277 277 277 277 278 279 280 281 282 283 283 283 283 283 282 282 282
280 280 279 279 279 281 279 279 275 273 270 270 269 268 272 276 276 277 278 278 277 276 275 275 276 275 275 274 274 274 274 273 273 273 273 273 273 273 273 273 273 273 273 273 273 272 272 272 272 272 271 271 271 271 271 271 271 271 271 271 271 271 271 271 271 271 271 271 271 272 272 273 274 273 273 273 274 274 274 274 275 275 275 275 276 277 279 279 280 280 280 282 283 283 282 282 282
281 281 279 280 276 274 272 270 279 276 273 270 269 268 274 277 280 280 279 280 278 277 276 276 276 275 275 275 274 274 273 273 273 273 273 272 272 273 273 273 273 273 272 272 272 272 271 271 271 271 271 271 271 271 271 271 271 271 270 270 270 270 270 270 270 270 270 270 270 270 271 272 272 272 272 272 272 273 273 273 273 273 274 274 275 275 276 277 278 278 279 280 280 280 281 282 282
Wind_Speed
8 8 8 9 8 6 5 2 4 2 3 9 9 7 7 7 10 11 8 5 3 8 6 1 6 3 2 3 8 8 3 5 1 2 3 3 2 1 3 3 2 3 5 10 10 11 10 10 11 11 15 17 16 16 16 15 15 15 15 14 13 12 10 8 10 9 11 10 10 8 9 9 9 9 9 9 8 8 8 9 9 11 12 13 13 12 14 14 14 15 15 15 15 15 15 14 14
8 9 8 5 4 3 4 3 3 4 6 8 10 9 9 10 11 9 4 5 4 2 2 4 2 6 2 2 3 5 6 4 4 1 3 2 3 2 1 2 2 4 5 11 10 10 9 10 10 11 15 17 16 16 16 14 14 15 15 14 14 13 11 10 9 10 11 11 11 11 10 9 10 9 9 9 9 9 9 9 10 12 14 14 14 13 14 13 14 15 15 15 15 14 14 14 14
9 6 5 5 5 4 5 5 4 6 8 11 7 8 6 8 9 5 5 4 3 5 5 2 0 3 3 3 7 7 3 5 6 3 3 4 5 1 3 2 2 3 7 11 9 9 8 10 9 10 13 16 17 16 16 12 12 12 13 14 13 14 13 12 11 11 11 10 11 11 11 11 10 10 9 9 9 9 10 10 10 13 14 15 16 16 15 16 16 16 16 15 14 14 14 14 14
9 8 5 4 3 1 3 2 5 6 8 7 5 3 3 5 7 8 3 3 1 2 1 3 3 6 3 5 4 4 4 3 5 2 3 1 2 4 3 2 3 3 5 7 9 7 7 10 10 10 12 15 14 16 15 11 11 11 11 12 12 13 13 13 13 13 10 9 11 11 10 11 11 10 10 9 9 9 10 10 11 13 14 14 15 15 16 16 16 16 17 15 14 14 14 13 13
9 3 4 5 4 4 3 4 7 7 11 5 6 2 5 6 4 3 0 2 3 2 2 4 4 4 4 4 4 2 1 5 5 8 3 3 2 3 3 1 2 3 4 8 7 7 7 15 10 10 12 14 15 14 14 11 10 10 11 11 11 12 12 12 11 11 10 9 8 11 12 10 10 11 10 9 10 10 10 10 10 13 13 14 12 14 15 14 16 16 17 16 15 14 14 12 12
8 5 3 4 3 1 4 5 7 10 8 7 7 2 2 2 4 1 1 5 4 0 3 2 4 6 4 6 1 2 1 3 1 3 4 1 2 0 4 1 2 3 3 7 9 6 8 15 12 10 13 14 15 15 13 11 11 10 10 10 11 12 11 10 10 10 9 8 9 9 9 10 10 10 10 10 11 11 11 10 10 12 13 13 14 9 10 15 17 17 18 17 15 15 14 13 12
5 6 4 2 4 3 7 8 9 8 9 11 9 1 2 1 4 4 4 5 1 5 2 3 3 4 6 1 4 1 10 7 1 2 4 3 2 2 2 1 2 3 3 3 7 6 13 14 14 10 11 13 16 14 11 11 11 11 10 10 10 12 11 12 11 9 9 9 9 10 9 10 11 10 10 10 11 12 11 11 12 12 11 11 13 17 17 16 16 16 18 16 15 16 15 13 12
6 6 3 5 4 4 7 8 10 8 8 11 5 7 6 3 2 5 4 5 3 5 6 6 8 6 6 6 6 6 11 10 8 5 4 4 3 4 2 1 1 0 2 5 7 5 14 15 13 12 10 11 14 14 11 11 11 11 11 11 11 11 12 12 12 11 11 11 11 11 10 10 11 10 10 10 11 12 12 11 14 14 13 12 14 15 19 18 18 18 18 17 16 16 15 13 12
4 5 1 4 7 4 7 9 9 10 11 11 9 5 10 8 6 2 8 6 5 3 8 4 5 5 1 3 4 5 6 5 7 5 6 4 5 3 0 2 2 2 3 6 7 5 9 12 12 12 10 11 11 12 12 12 11 11 11 11 11 10 11 12 11 12 13 12 12 12 11 11 11 10 9 9 10 10 11 12 13 13 14 15 16 18 18 20 19 19 18 18 17 15 14 13 12
5 3 3 4 4 9 7 8 9 9 11 10 10 9 8 8 8 7 7 8 10 6 5 6 5 6 2 4 4 2 2 1 4 6 4 3 3 3 1 2 6 4 3 2 7 4 4 9 12 10 8 10 12 12 11 12 11 10 10 11 11 10 10 11 12 12 13 12 12 12 12 11 10 10 9 9 8 7 9 10 12 10 12 16 15 15 19 21 21 20 19 17 17 15 14 13 11
5 4 2 4 7 8 9 8 9 10 13 8 8 12 10 4 5 10 4 7 6 8 5 2 6 6 8 6 1 0 0 1 2 6 4 5 2 4 1 3 2 1 0 0 3 5 6 6 9 9 8 8 10 11 10 9 9 10 10 10 9 9 9 10 11 12 12 12 12 12 11 11 10 8 7 7 7 7 11 11 15 16 16 17 21 19 19 20 21 21 19 18 17 15 14 12 10
5 4 3 6 8 8 8 9 10 10 10 8 9 4 2 6 7 8 7 7 7 9 8 4 4 5 5 4 2 1 4 3 4 3 4 3 4 2 1 2 2 5 4 7 1 3 6 5 5 5 7 7 9 9 8 9 8 7 7 8 8 8 9 9 10 10 10 10 10 10 10 9 8 7 6 8 8 9 9 9 3 16 15 13 16 18 20 21 21 22 20 18 18 16 13 11 10
6 2 4 6 7 8 10 10 9 10 9 8 8 3 7 8 7 6 2 3 4 6 7 8 9 6 5 5 4 5 4 2 5 4 2 1 4 3 0 1 2 1 3 7 6 5 6 5 5 3 2 3 6 7 7 7 9 7 6 5 6 7 8 8 8 8 9 9 9 9 8 8 7 6 6 8 8 7 8 11 12 12 15 17 15 13 14 17 19 21 20 19 18 16 13 11 9
5 4 4 7 6 10 9 8 8 9 7 7 6 1 3 2 6 6 5 6 8 8 5 5 7 3 8 2 3 5 3 3 3 4 3 2 3 4 1 5 4 4 0 0 5 5 4 5 6 6 4 2 2 4 8 7 7 8 7 7 6 5 4 6 7 7 8 7 7 7 7 6 6 7 8 8 9 9 10 10 9 17 17 17 17 17 16 15 16 17 19 18 17 16 13 11 9
6 4 5 6 7 8 8 8 8 8 8 7 4 4 1 3 2 3 8 8 10 7 3 4 5 4 2 3 2 2 5 5 3 3 4 3 5 3 3 2 2 3 5 1 2 2 5 5 6 5 6 6 6 5 3 5 8 7 7 7 7 7 6 5 5 5 5 4 4 4 6 8 9 9 9 10 10 10 9 12 13 16 16 18 18 17 18 17 16 16 18 18 17 15 13 10 8
4 3 4 6 8 9 7 8 8 10 8 8 2 2 3 6 4 5 7 9 7 6 3 2 2 4 3 9 4 4 8 6 4 4 4 5 4 4 3 2 0 1 0 3 1 3 3 6 6 6 6 6 6 6 5 3 2 6 9 10 9 8 7 5 4 5 5 5 7 8 9 8 8 8 11 10 12 12 12 11 13 13 16 15 15 16 17 17 17 18 19 18 17 15 12 9 9
2 3 6 6 11 8 7 8 8 9 8 9 1 5 7 7 5 7 10 11 6 6 9 4 6 3 7 7 2 10 7 6 6 5 5 5 2 3 3 3 2 1 0 1 1 1 4 6 7 5 7 8 7 6 6 6 8 9 6 7 9 9 7 5 4 5 6 8 8 10 10 7 6 6 8 7 11 10 10 14 13 14 14 14 13 14 14 15 15 16 18 18 17 15 12 10 9
3 4 7 11 8 12 8 12 9 8 12 10 9 6 11 12 8 9 7 3 5 7 10 8 9 8 6 2 1 7 8 8 6 6 3 4 3 3 3 3 4 4 3 3 3 3 3 4 5 7 5 8 7 6 5 6 6 9 7 5 4 5 6 5 4 3 5 5 9 9 7 6 6 6 6 8 7 9 9 10 10 12 13 14 14 15 15 15 14 14 17 18 15 12 11 5 5
7 5 7 11 9 11 11 11 12 9 7 14 14 13 13 15 14 6 10 5 8 10 10 9 11 11 10 8 8 8 7 6 6 5 7 5 5 5 5 4 5 4 5 4 5 6 5 5 5 7 6 7 6 7 6 7 7 6 7 6 5 5 4 4 4 5 4 5 5 6 5 5 5 6 7 7 8 11 11 14 12 12 14 14 12 13 14 15 16 16 17 16 13 9 4 5 5
8 7 9 11 10 12 13 13 11 13 9 12 12 16 15 12 12 8 12 12 9 8 8 8 10 11 10 5 2 7 6 7 5 5 6 6 6 6 5 7 6 6 6 7 8 7 8 7 8 8 8 8 8 6 5 6 6 6 6 5 5 4 4 4 4 4 5 4 5 6 7 7 7 7 9 14 12 9 9 10 12 14 12 12 16 12 14 12 16 17 18 14 7 4 5 5 5
5 7 8 9 10 12 11 14 9 11 10 9 12 14 13 12 12 12 12 14 13 10 9 12 12 11 9 9 2 5 6 5 5 5 5 6 7 6 5 6 7 8 7 5 5 8 10 9 7 7 8 7 7 6 6 6 6 5 4 5 5 5 5 4 4 5 5 6 5 5 6 8 8 7 8 8 7 8 8 7 6 7 8 9 11 8 8 9 7 6 7 7 6 5 4 5 4
4 9 11 13 12 15 14 8 8 8 13 8 9 15 14 7 9 16 13 13 11 7 8 9 7 7 8 9 5 7 9 8 10 9 8 7 8 7 6 4 4 5 6 7 8 7 8 9 9 7 7 6 6 5 5 6 8 5 5 5 5 4 5 5 4 5 5 6 3 4 6 7 9 8 8 7 7 8 8 7 5 6 7 7 8 8 7 7 6 6 6 6 5 4 4 4 3
5 8 12 12 13 16 8 8 9 10 11 14 13 11 14 14 11 11 12 15 12 10 11 12 12 10 12 11 8 9 5 5 5 9 10 9 7 7 7 6 6 6 7 7 8 8 9 9 10 9 8 7 7 5 4 5 6 6 6 6 6 5 4 5 5 5 5 6 5 2 5 7 9 8 8 8 9 7 7 7 7 7 7 7 5 8 7 6 6 6 6 6 5 5 4 3 3
4 7 9 13 14 15 16 12 6 8 8 13 12 14 13 15 15 8 12 13 12 9 12 12 13 13 11 12 8 11 13 11 9 9 8 6 7 9 7 8 7 5 5 7 7 7 7 9 10 11 9 8 6 5 5 5 5 6 6 8 6 7 6 4 5 6 6 6 6 5 3 8 10 9 8 7 7 7 7 6 6 7 7 6 6 7 8 6 6 6 6 6 6 5 5 3 4
7 8 10 12 10 13 6 2 6 5 9 14 9 15 13 13 12 11 18 19 14 14 13 15 16 16 15 15 14 10 8 9 10 9 10 6 6 5 8 7 8 8 8 7 6 7 6 7 7 7 7 7 7 7 6 5 6 5 6 8 7 8 7 5 6 7 6 6 7 8 5 6 7 9 10 9 7 7 7 7 7 6 6 6 6 6 7 7 6 6 6 6 5 5 5 5 4
9 12 9 8 9 9 4 7 9 9 8 7 10 15 15 15 14 20 25 21 18 19 20 21 20 20 17 14 13 10 9 11 11 8 7 6 5 5 6 4 1 4 7 7 6 5 4 6 6 8 9 9 7 6 6 5 6 6 6 7 6 8 7 6 6 6 6 7 8 7 8 8 8 8 7 7 8 7 7 6 6 6 7 6 7 7 6 7 7 6 6 6 6 6 5 5 5
9 14 12 12 14 14 11 15 14 12 11 10 13 15 15 13 12 13 13 14 18 22 22 20 17 11 11 11 10 10 7 6 7 7 4 4 4 5 2 3 2 4 2 4 6 6 4 4 5 5 6 7 6 7 6 5 5 5 5 6 6 8 7 7 6 6 6 7 8 8 9 8 7 7 9 9 7 8 7 7 6 6 5 5 5 6 6 7 7 6 7 7 6 6 6 5 5
12 12 11 13 15 14 14 15 18 13 14 14 16 17 14 14 12 15 11 12 14 15 15 13 10 8 8 10 5 4 8 9 9 7 7 2 5 5 4 3 2 4 4 3 1 2 6 5 4 5 5 5 5 6 6 5 5 5 4 5 5 6 7 7 7 6 7 7 7 7 6 6 7 9 9 8 8 9 9 8 7 7 7 6 5 5 5 6 7 6 5 5 5 5 5 3 4
8 9 14 12 14 15 13 17 17 14 15 11 12 17 17 12 14 15 16 16 17 17 16 13 12 10 13 8 4 5 7 3 4 3 4 2 2 3 2 4 3 2 1 2 3 3 3 4 6 4 5 5 5 5 7 6 5 6 6 5 5 7 6 6 8 8 7 7 7 8 7 7 7 8 9 10 10 9 8 8 8 7 7 7 6 6 6 6 6 7 6 5 6 6 6 4 4
10 11 11 15 13 14 12 12 12 14 12 13 12 14 12 10 9 9 11 7 8 8 6 7 12 13 4 2 4 4 2 3 2 13 12 12 12 11 11 12 12 10 9 9 6 4 4 2 2 3 4 5 4 4 4 5 4 5 6 6 6 6 6 6 7 8 8 7 7 8 7 8 8 8 9 8 8 8 8 7 8 7 7 7 7 6 7 6 6 6 6 6 5 6 6 5 4
9 10 8 9 10 10 10 10 12 15 10 10 6 13 10 8 9 10 2 2 8 7 5 8 8 6 2 1 2 1 1 4 15 13 14 13 12 11 12 12 13 12 10 10 11 10 5 5 3 1 3 4 4 2 2 4 4 3 3 4 6 7 6 5 5 6 7 8 7 6 6 5 5 6 7 9 9 8 8 7 6 5 6 7 7 6 7 5 6 7 7 7 6 5 5 5 5
7 7 8 7 10 9 11 11 12 14 6 8 7 11 11 10 10 6 3 1 3 5 7 7 5 3 4 4 4 4 1 12 14 15 13 12 13 11 12 11 10 10 10 9 9 9 9 4 4 4 2 3 4 3 1 2 3 2 3 3 4 4 5 5 4 5 6 6 6 6 7 5 4 2 1 6 10 9 9 8 7 7 8 6 6 6 6 7 5 5 5 7 8 6 6 5 5
7 9 8 8 7 10 11 9 9 9 3 5 9 11 9 8 5 9 13 13 4 7 7 9 9 8 7 7 5 4 3 12 12 11 13 12 11 11 10 10 10 10 9 8 8 8 9 7 4 4 4 4 3 4 3 2 2 1 1 2 5 4 3 5 6 4 4 6 5 6 6 7 6 6 4 2 2 7 8 7 6 7 7 8 7 6 6 5 6 6 5 4 5 7 7 6 5
6 7 8 6 10 9 8 10 8 7 5 5 7 9 10 10 9 11 12 12 15 15 13 11 10 11 11 8 3 8 11 9 10 11 11 11 9 11 9 8 9 8 7 7 7 8 7 7 5 3 4 4 5 6 5 4 4 1 1 4 1 4 4 2 3 6 5 5 6 6 6 6 6 6 6 4 3 3 5 7 7 8 8 6 6 6 6 6 6 6 6 3 5 6 6 6 6
5 4 6 8 9 11 14 9 6 12 8 7 8 13 15 13 11 13 15 13 11 12 14 13 13 11 12 6 11 9 10 10 9 8 10 9 10 10 7 8 6 8 7 9 11 9 7 6 6 4 3 3 2 6 6 6 4 3 4 5 4 3 3 4 1 3 5 4 5 5 6 6 6 7 6 6 6 5 5 6 6 7 7 8 8 6 6 6 6 6 7 5 4 4 5 4 5
11 12 10 10 11 9 10 10 10 10 12 12 14 15 16 16 15 14 15 14 12 12 12 11 10 7 8 9 8 8 8 10 6 8 9 9 8 9 8 7 7 7 8 9 11 11 10 7 5 5 2 2 3 3 5 5 6 6 4 4 3 4 4 3 2 1 3 5 4 5 5 6 6 6 6 6 7 8 8 7 8 6 6 7 8 8 7 7 8 8 8 7 6 5 4 5 6
13 11 10 12 13 14 12 12 9 6 10 11 14 16 16 15 12 11 12 11 13 13 12 11 4 7 7 9 7 9 8 8 6 7 9 9 9 9 8 7 8 9 9 10 10 10 11 8 7 6 2 1 4 5 5 5 4 4 3 4 2 4 4 4 4 2 3 4 4 4 4 4 5 6 6 6 7 6 7 7 8 7 7 6 7 7 6 7 6 7 8 6 8 6 3 4 5
10 9 8 10 9 12 10 14 10 8 7 9 11 15 16 14 12 12 12 13 14 10 6 3 11 7 8 8 8 7 7 4 7 9 10 9 9 10 9 9 10 11 10 10 10 11 10 9 6 6 5 3 3 5 5 4 3 4 4 4 5 4 3 2 2 4 4 4 5 5 4 4 4 4 4 6 6 7 7 7 8 8 7 6 4 4 6 7 7 7 7 6 3 6 4 5 6
7 7 7 9 10 10 13 13 11 10 9 10 9 14 14 13 13 12 13 12 5 7 6 4 6 8 6 7 6 6 6 6 7 9 10 10 11 12 9 10 9 8 9 10 10 12 10 10 11 5 6 7 7 6 6 7 5 5 4 4 5 5 5 4 4 3 4 5 5 5 4 4 4 4 3 1 6 7 7 7 7 7 7 7 7 5 6 6 7 9 9 9 6 2 3 4 6
7 6 7 9 6 6 9 6 8 10 7 8 10 15 13 13 13 14 15 16 4 8 10 8 6 9 8 7 6 6 7 8 9 11 10 10 10 9 9 9 9 8 9 9 11 12 10 11 13 14 9 9 8 8 8 8 9 9 8 7 7 5 4 4 5 4 4 5 6 5 5 4 4 4 4 3 2 2 7 7 7 7 7 5 6 7 6 6 5 7 8 9 10 6 3 3 3
7 9 9 10 7 10 10 9 9 10 9 9 13 14 13 11 11 10 1 9 10 7 10 8 7 8 7 7 8 8 8 7 7 8 8 8 9 9 9 9 8 9 9 10 10 11 9 11 11 12 12 10 8 8 7 5 8 8 7 8 7 7 5 3 3 3 3 4 4 4 4 4 4 4 5 5 3 2 2 6 7 6 6 5 6 6 6 5 4 5 7 7 8 8 7 3 0
8 9 12 12 11 13 14 13 9 5 9 7 10 10 11 4 6 11 7 3 7 5 7 7 6 5 5 6 7 6 7 6 7 6 7 7 7 8 9 9 9 9 9 9 9 10 11 12 13 13 12 12 12 13 11 5 4 6 5 4 3 4 2 1 2 3 3 3 3 3 4 4 4 4 3 5 5 3 3 4 5 6 6 5 5 5 6 5 4 4 3 5 4 3 7 6 4
8 5 6 9 10 7 6 8 4 8 9 2 5 6 13 3 8 9 4 7 7 5 5 6 5 5 5 4 5 6 5 6 5 6 5 7 7 7 8 9 9 9 10 9 9 9 12 12 12 13 12 11 12 12 13 9 7 7 5 6 5 2 3 1 3 4 5 4 4 4 4 4 4 5 4 4 5 5 4 4 4 4 5 5 5 5 5 5 5 5 5 6 5 6 6 5 6
10 3 1 3 4 7 8 7 6 9 7 12 12 9 13 13 13 5 8 8 8 7 6 5 4 7 5 5 5 5 6 4 5 5 6 6 7 7 8 8 8 9 9 9 9 10 12 13 13 12 10 11 12 11 12 11 9 7 7 5 5 4 5 5 5 5 5 5 5 5 5 4 4 4 5 3 4 5 5 4 3 4 5 5 5 4 5 5 5 4 4 4 4 5 6 7 6
6 4 6 3 1 4 6 6 7 7 8 16 8 7 11 12 11 5 8 7 8 8 7 6 6 6 6 5 6 6 5 5 5 5 6 6 7 8 7 8 9 9 9 9 10 10 11 12 13 13 13 13 12 13 12 12 11 10 10 8 8 7 7 6 6 6 5 5 6 5 5 4 4 5 4 4 4 4 4 3 2 3 4 4 5 4 5 6 7 7 5 5 4 4 4 5 6
1 6 2 1 3 4 3 6 8 7 8 19 9 5 9 14 9 5 5 10 11 8 7 7 6 5 5 6 5 6 5 5 5 6 6 6 7 7 8 8 9 9 9 9 10 10 11 11 13 15 15 12 12 14 13 13 13 11 11 11 11 8 6 6 6 5 5 4 5 5 4 3 3 4 3 4 4 3 2 1 2 4 4 5 5 4 4 5 5 5 5 5 5 4 3 4 5
4 1 3 4 4 5 5 8 7 7 13 19 8 9 9 12 11 6 8 6 7 7 5 6 6 6 6 5 5 4 5 4 4 5 6 6 7 7 9 9 9 10 9 10 9 10 10 12 12 14 14 12 13 14 14 14 12 12 11 11 12 11 10 9 8 6 5 6 4 3 3 3 3 4 4 3 3 2 1 2 2 4 6 6 5 4 4 4 4 5 4 3 4 5 5 4 3
1 1 2 4 7 6 9 8 8 9 14 10 5 8 11 11 6 4 0 1 8 12 12 11 9 8 6 5 4 5 5 5 5 5 6 7 7 8 8 10 10 10 10 11 10 10 10 11 12 14 14 14 13 13 14 14 12 13 12 12 12 11 10 9 10 10 10 8 7 5 3 3 3 4 4 4 3 2 3 3 3 4 5 6 5 4 3 3 3 3 2 2 2 1 1 2 3
3 3 3 3 4 1 6 5 9 12 13 4 4 9 10 16 6 2 5 3 4 2 8 11 11 9 7 6 6 5 5 6 6 6 6 6 6 8 9 9 9 10 10 11 11 10 10 11 12 13 14 13 13 13 14 15 15 14 12 12 12 10 11 11 10 10 9 9 9 10 10 9 9 8 7 4 2 5 5 5 5 5 5 5 5 5 4 4 4 5 4 3 3 3 4 3 3
6 7 5 5 7 8 11 7 6 8 9 11 12 1 10 5 1 5 7 5 5 6 8 8 9 9 8 7 6 5 5 6 6 6 6 5 6 6 7 8 9 8 10 10 10 10 10 10 12 13 13 13 12 13 14 14 15 14 13 12 11 10 11 11 10 10 10 9 9 10 9 8 8 8 8 9 9 5 5 3 3 5 5 5 4 4 3 3 3 4 3 4 4 3 1 2 2
9 6 7 8 6 3 7 6 8 8 5 2 6 2 4 5 2 3 7 6 7 7 8 8 8 8 7 6 6 7 6 6 6 6 5 7 7 7 6 7 7 9 9 9 9 10 9 11 11 13 13 13 13 13 12 14 13 14 13 12 12 11 10 10 10 9 10 10 10 10 9 9 9 9 9 9 12 12 10 6 6 6 5 5 4 4 4 4 3 2 2 2 1 1 2 1 2
5 5 4 7 10 3 10 4 6 5 8 10 5 5 1 2 3 5 5 6 6 6 8 7 8 6 7 6 6 6 6 6 5 5 7 7 7 6 6 6 6 7 9 8 10 9 10 10 11 12 13 12 13 13 12 12 12 11 14 14 13 12 11 10 10 10 10 10 10 10 10 10 9 9 9 10 11 10 10 11 8 6 5 4 4 4 4 3 3 3 2 2 2 1 3 3 4
1 5 9 7 2 6 6 8 9 9 8 15 4 8 7 6 1 4 5 6 6 6 7 7 8 7 6 6 7 6 6 6 5 6 6 7 6 6 6 6 6 7 8 9 9 9 10 10 11 12 12 12 13 13 12 11 11 13 14 14 13 13 13 14 11 12 12 10 10 10 10 10 10 10 9 9 10 10 10 10 10 10 8 6 5 5 4 3 2 2 2 1 2 1 3 2 2
3 4 2 2 2 1 2 5 3 5 10 11 3 8 5 4 4 5 7 8 9 9 9 8 8 7 7 7 7 7 7 7 7 7 6 6 6 6 6 6 6 7 7 8 9 8 8 9 10 12 12 14 12 12 13 12 12 12 13 13 14 13 12 13 12 12 11 11 11 10 10 10 11 10 9 8 9 11 10 11 11 10 10 11 10 8 6 6 5 4 3 2 2 2 1 1 3
8 6 1 0 2 3 3 2 8 8 11 8 10 11 12 10 5 6 11 11 12 11 10 10 10 9 8 8 9 8 7 7 7 6 6 6 5 6 6 7 7 7 6 7 8 8 9 9 10 10 12 11 11 10 10 11 12 10 10 12 13 12 12 11 11 11 11 12 12 11 11 10 10 11 11 11 11 11 11 11 10 10 10 10 9 8 8 6 4 4 3 3 3 4 3 3 2
9 5 2 3 3 7 5 5 2 3 10 7 10 7 9 3 2 12 13 14 11 11 10 10 10 9 9 9 8 8 8 7 7 7 7 6 6 6 6 7 7 7 6 6 7 7 9 9 9 10 10 10 11 12 11 12 11 11 11 11 12 11 12 12 12 12 11 12 12 12 11 12 12 10 11 11 11 11 11 11 9 9 8 8 8 7 7 7 6 5 4 4 3 3 2 3 4
4 4 6 3 5 2 4 6 7 5 6 7 7 10 6 3 3 4 8 12 13 15 13 9 9 9 9 9 8 7 8 7 7 7 6 6 6 6 6 6 6 6 6 6 6 8 7 7 9 9 10 10 11 10 10 10 10 11 12 13 12 12 13 11 12 12 12 12 12 11 11 10 10 12 11 11 11 11 11 10 10 9 9 9 7 7 6 6 6 6 6 6 6 4 2 2 1
7 9 9 9 7 6 9 12 4 6 8 9 5 11 7 0 4 7 4 7 10 9 11 10 9 10 10 9 8 8 8 7 7 7 6 6 6 7 6 6 5 6 7 8 6 7 8 8 8 8 8 9 9 10 9 9 9 10 12 12 12 11 11 11 12 13 12 12 12 11 11 11 12 11 12 11 12 11 10 10 10 10 10 10 9 9 7 7 7 7 6 5 6 7 6 3 2
Wind_Direction
264 244 246 236 237 254 251 187 246 210 234 243 253 235 256 229 251 256 255 285 272 351 25 64 33 31 18 11 334 328 325 295 326 258 243 202 101 102 180 170 225 196 163 126 133 147 157 170 175 180 178 176 175 175 172 168 165 165 165 164 160 156 167 170 164 171 163 162 170 184 184 189 189 193 197 197 198 199 201 192 187 185 173 163 161 158 149 145 144 138 129 128 127 124 120 116 112
244 245 231 251 251 247 221 181 240 230 202 249 246 252 248 250 251 246 216 300 350 167 318 34 312 38 81 340 322 350 308 254 247 245 104 58 130 94 224 232 171 185 167 116 139 152 160 169 178 180 179 175 178 174 171 167 166 166 164 161 158 154 163 166 181 182 174 172 178 180 188 197 196 199 197 201 206 206 205 203 191 187 173 164 163 158 148 146 145 135 129 127 126 123 121 118 116
259 226 237 218 228 243 312 192 227 229 245 245 252 233 232 241 242 244 56 132 299 324 94 262 160 229 238 216 247 218 237 216 225 210 73 161 143 141 171 267 243 241 170 126 140 154 164 166 169 175 182 179 176 175 172 160 163 158 155 157 163 161 165 170 184 185 187 188 181 181 190 196 194 201 200 202 210 213 214 206 199 188 175 170 166 156 157 150 143 135 128 125 123 120 119 117 115
279 278 242 168 227 197 236 226 233 263 256 256 266 263 353 7 54 68 24 72 130 345 31 318 270 69 301 248 273 319 262 245 69 49 132 110 24 181 128 226 268 254 173 131 137 157 167 155 163 171 182 179 177 176 170 146 154 156 159 159 163 166 176 175 186 186 188 190 183 191 193 198 197 200 207 208 213 216 219 212 203 189 178 172 162 160 156 148 141 136 128 125 120 120 117 115 112
264 256 261 280 253 209 206 235 233 222 241 250 264 54 45 66 83 71 291 307 320 269 1 286 292 230 251 297 324 236 324 312 46 17 105 121 159 81 127 240 225 257 190 134 141 153 151 144 163 169 176 179 176 170 170 147 149 157 169 165 169 174 184 189 191 190 187 189 203 196 189 200 201 203 209 214 220 218 221 215 202 190 176 170 157 173 153 145 142 136 128 125 123 121 117 112 110
247 234 209 275 231 27 312 240 231 239 246 267 270 57 40 82 105 115 343 275 225 318 253 278 282 317 251 277 79 254 120 256 342 68 355 51 70 113 107 219 251 248 187 134 143 151 135 152 161 168 175 175 174 164 165 155 159 162 169 173 175 180 184 186 196 194 193 197 193 207 204 199 203 208 215 220 222 221 221 212 203 182 181 166 158 127 136 152 139 134 122 122 120 123 119 117 111
214 216 171 238 280 234 246 245 246 251 243 247 260 184 190 144 127 163 209 232 122 274 39 260 251 295 259 259 261 328 53 44 23 54 49 127 97 97 95 200 265 241 128 87 121 146 143 150 163 171 168 173 179 171 163 169 171 172 176 182 190 182 179 185 191 196 200 201 200 205 209 201 205 212 220 225 224 218 219 208 195 177 165 162 153 174 159 146 131 119 117 123 126 126 121 120 114
301 299 151 209 234 190 233 253 264 262 256 260 305 321 92 79 25 246 217 232 239 241 206 216 262 230 265 304 276 69 56 62 89 86 96 87 92 116 162 156 236 134 151 117 66 63 144 152 158 165 165 160 169 176 172 177 180 182 186 190 195 185 184 186 188 190 199 200 202 206 209 208 210 213 221 228 227 223 217 200 195 174 163 159 153 161 149 134 120 118 123 131 130 127 124 121 117
232 232 334 239 244 238 239 239 250 251 267 283 272 232 147 155 197 258 270 269 260 223 293 234 240 238 103 298 280 123 72 61 91 80 73 76 113 97 292 150 194 150 114 90 92 113 139 149 151 160 163 166 168 178 177 180 186 191 194 198 201 195 189 186 191 194 198 201 202 204 207 211 214 216 221 229 229 226 216 200 178 156 171 175 166 156 140 130 126 129 134 133 131 129 126 124 120
244 223 182 234 268 255 253 245 255 254 260 237 257 246 247 241 252 235 250 259 259 264 228 288 124 243 262 259 291 317 123 202 139 107 121 114 84 87 58 40 28 31 59 92 114 121 137 155 152 158 164 173 174 179 184 189 185 193 201 205 203 201 194 189 196 200 202 204 204 205 207 212 215 217 221 224 227 208 178 172 157 157 166 145 145 148 134 131 132 134 135 134 133 129 128 124 115
240 192 322 262 234 255 254 263 244 250 251 261 237 226 227 253 265 275 253 256 269 287 268 234 276 272 263 250 235 17 174 182 109 87 84 92 111 123 144 102 125 121 120 103 113 133 148 158 161 153 156 180 176 175 188 184 185 192 196 203 208 200 198 200 203 204 205 206 207 208 209 212 215 217 213 211 181 175 176 172 170 161 174 162 157 151 139 136 136 134 133 134 132 128 127 123 109
238 226 190 242 245 247 251 258 266 271 281 287 281 308 138 244 272 256 252 242 234 239 246 213 240 245 253 318 103 213 150 73 89 91 74 103 122 87 72 146 165 172 200 155 152 144 153 145 152 184 164 160 176 169 170 179 183 196 202 201 201 200 204 209 209 207 206 205 207 207 207 213 215 202 207 169 172 168 174 131 161 163 148 149 151 147 142 141 138 133 134 135 134 129 129 125 107
249 238 244 251 250 243 260 270 283 291 296 296 305 3 29 294 252 268 302 306 304 299 285 281 273 263 241 234 97 122 75 79 93 141 131 137 96 122 133 62 127 145 243 151 182 163 150 153 155 163 147 153 153 154 159 179 181 183 190 210 209 207 208 212 213 210 209 207 201 197 202 209 196 188 171 162 153 140 136 136 158 147 149 150 150 135 139 138 134 132 135 137 132 130 127 125 105
234 228 238 251 260 269 275 285 282 278 266 284 272 60 61 279 289 291 310 267 241 225 242 277 239 285 266 287 150 108 119 124 131 118 133 112 119 114 106 46 24 357 252 117 159 143 145 164 160 161 143 143 146 158 155 160 173 174 183 187 198 204 214 219 218 216 218 210 193 195 191 171 154 144 140 132 131 140 139 149 147 161 156 151 144 143 137 131 131 132 134 136 131 128 126 122 101
238 222 246 248 246 255 259 267 269 268 272 274 269 333 140 219 247 293 276 282 269 283 41 320 314 296 314 272 78 101 139 152 128 127 117 123 110 90 87 44 54 34 351 228 169 174 163 169 173 170 171 170 165 173 167 169 163 166 175 183 188 187 193 209 225 227 219 216 185 154 134 127 127 128 128 129 126 127 146 146 159 158 158 152 145 141 136 133 138 135 132 131 128 125 125 113 96
253 271 250 254 248 247 246 250 253 265 266 250 250 290 308 288 272 273 255 249 264 273 105 272 155 255 304 259 128 168 149 137 144 143 131 131 114 115 99 127 157 61 26 353 256 174 199 180 190 185 184 186 188 180 166 138 201 214 182 180 175 175 178 177 205 212 193 147 128 121 117 113 119 123 123 127 129 130 139 142 150 153 150 143 135 135 134 136 139 134 132 127 124 122 110 91 83
250 268 255 242 253 241 242 247 250 250 261 267 123 172 241 251 239 243 248 217 248 272 288 292 265 177 216 249 92 144 138 139 154 141 139 119 143 143 136 133 140 227 146 230 316 274 215 203 199 199 191 196 192 184 141 171 200 212 213 188 177 176 163 135 143 168 159 145 140 139 133 130 126 127 121 128 132 134 133 136 142 140 139 135 129 126 122 129 135 133 128 115 101 95 91 82 73
242 232 236 243 247 247 243 247 246 269 275 293 285 281 271 271 267 237 251 254 236 247 253 263 265 247 244 178 174 135 142 155 146 140 150 152 156 159 167 168 159 195 196 200 212 217 232 216 218 210 198 203 197 176 159 181 199 192 193 179 188 188 157 138 150 155 164 160 151 148 144 141 139 136 128 125 116 124 117 106 124 139 128 126 130 131 131 128 132 126 107 105 106 109 111 102 92
220 233 236 249 241 246 246 254 255 270 344 318 302 278 259 261 264 302 293 236 226 244 235 221 236 236 244 205 200 155 149 143 143 175 179 175 176 182 183 178 184 190 180 190 208 205 212 213 215 225 204 203 203 184 176 192 195 187 193 175 173 170 152 171 159 157 178 165 166 158 141 131 136 127 134 130 129 123 123 126 120 121 127 131 126 122 117 127 127 109 101 99 108 111 104 112 113
224 239 243 247 252 269 271 278 311 296 224 248 272 285 289 302 294 296 278 290 267 260 289 299 283 291 292 284 153 131 154 151 167 192 191 193 192 200 189 179 193 198 193 189 191 197 196 208 210 215 212 202 207 192 187 174 186 181 188 169 147 144 155 173 163 158 144 169 186 157 151 149 131 131 120 122 120 118 114 107 114 118 118 125 123 118 103 93 106 105 105 101 83 70 80 78 79
219 224 243 259 260 265 261 268 272 318 335 345 321 295 289 302 304 288 281 279 278 264 238 252 260 265 274 278 91 167 150 169 181 195 209 206 206 203 207 196 189 194 190 181 201 200 198 199 206 211 213 214 213 190 179 177 160 173 166 138 141 144 158 160 150 156 158 166 198 173 157 138 131 130 130 136 126 123 120 123 118 121 126 117 106 102 109 112 102 96 93 94 101 103 103 98 86
301 253 256 257 262 263 273 322 9 320 314 289 267 282 283 282 276 275 271 270 271 292 301 293 309 312 312 310 296 194 177 180 193 195 200 204 208 213 206 212 200 175 173 186 195 207 206 204 201 201 211 216 216 204 183 157 147 173 144 147 139 146 157 150 147 150 156 147 146 190 137 137 132 138 142 137 131 133 130 127 127 123 117 120 123 121 122 122 114 109 108 105 113 105 105 103 99
248 264 266 268 276 276 298 330 324 337 337 335 316 321 329 293 268 272 287 273 278 304 316 311 297 291 281 270 289 295 274 243 229 199 193 202 212 215 211 202 198 192 175 194 191 199 202 204 204 197 201 211 215 199 190 153 166 169 158 160 147 153 154 156 152 163 163 151 150 130 166 144 136 147 143 144 142 143 135 137 139 133 131 128 129 125 121 119 119 113 106 105 98 100 88 87 83
260 278 301 292 295 298 300 287 294 298 301 288 299 316 313 326 306 310 293 289 302 312 300 298 294 288 286 283 264 257 258 264 268 285 265 235 210 204 213 205 194 189 181 190 204 200 199 206 203 198 193 191 193 204 195 174 172 169 166 150 151 149 153 167 164 168 163 155 140 136 222 159 148 145 146 145 142 139 135 137 135 130 127 126 126 124 123 118 111 106 110 104 104 103 112 102 94
225 241 249 263 245 249 277 258 270 274 282 270 247 264 258 257 269 301 274 270 279 278 271 270 269 271 268 262 261 254 255 254 263 260 263 239 246 237 205 207 192 182 188 192 199 205 202 208 211 208 199 198 194 189 196 178 172 185 158 158 160 154 163 173 170 164 166 157 154 157 190 156 153 152 153 153 150 145 138 142 145 140 133 135 134 131 137 133 126 128 124 123 127 129 130 127 120
244 266 279 296 290 288 235 257 255 235 247 208 215 235 245 250 256 255 257 261 264 263 259 256 255 254 258 266 269 263 246 250 251 250 241 242 225 238 224 202 219 210 181 183 190 202 204 191 209 206 195 201 192 179 185 182 166 188 176 163 160 155 168 164 167 165 170 160 165 168 175 174 161 154 146 140 139 137 140 140 137 141 143 145 143 141 150 137 139 138 138 141 146 147 148 151 145
285 291 304 311 304 296 294 286 283 274 253 233 226 236 239 239 237 256 244 257 250 249 252 249 251 251 276 267 249 251 254 271 292 290 270 255 238 206 87 50 9 329 301 196 176 178 192 208 210 219 202 193 189 182 178 192 162 174 181 159 149 162 161 154 170 165 164 174 174 173 177 175 152 146 155 155 149 146 146 146 141 130 129 143 140 138 139 137 137 142 147 148 152 147 145 153 147
292 285 303 290 280 271 273 270 267 260 256 251 253 248 238 238 229 245 253 248 251 250 253 253 246 264 243 255 264 304 284 266 259 266 265 323 28 23 49 64 18 333 324 329 309 184 181 195 216 211 219 210 202 172 168 185 172 164 157 160 146 164 160 164 162 162 173 177 174 169 178 168 163 164 159 156 153 157 156 153 148 145 147 139 131 133 123 119 122 124 128 141 139 120 121 151 146
302 292 272 273 271 272 268 269 266 258 265 256 253 260 254 247 247 255 255 254 253 257 257 267 262 223 226 232 250 267 274 316 35 50 47 18 32 52 22 29 358 294 304 299 296 309 290 197 195 203 207 224 212 185 174 182 166 145 147 175 147 160 152 153 162 166 178 178 175 175 171 163 168 165 170 164 162 161 157 151 152 154 150 145 138 135 123 115 109 108 103 104 99 110 124 127 117
291 278 274 275 271 266 264 260 265 264 262 243 241 262 253 255 271 287 291 299 260 272 283 262 238 237 257 334 311 295 16 33 29 43 34 31 25 26 29 21 21 16 357 348 359 338 321 309 187 185 186 213 227 217 169 150 154 145 151 160 147 152 159 161 176 170 170 178 179 178 173 175 175 175 169 163 156 154 156 156 156 152 149 144 136 134 130 133 128 124 127 113 118 124 123 129 116
275 273 263 263 282 268 264 261 268 269 265 249 265 279 280 271 279 287 324 6 341 315 283 261 313 337 339 331 232 67 281 54 53 44 35 33 24 23 19 18 11 6 353 353 348 333 323 315 317 280 177 197 191 227 184 154 160 150 144 162 145 164 164 159 169 165 164 169 173 167 165 180 179 181 179 159 160 156 151 149 150 143 139 139 141 143 135 132 134 141 141 128 126 126 129 128 117
259 270 244 249 255 281 276 265 264 277 282 320 277 261 272 284 283 276 200 253 283 299 298 312 295 302 292 296 289 260 196 62 50 41 31 26 27 18 15 12 5 357 350 339 331 327 318 292 290 272 222 187 169 191 214 155 143 116 130 112 98 145 158 157 163 176 159 150 157 151 155 148 137 128 154 184 164 158 155 156 153 141 144 139 139 141 134 141 146 139 145 142 136 138 136 138 137
238 238 261 270 270 276 274 249 270 284 325 252 270 276 292 284 310 292 299 297 229 236 262 273 269 268 280 256 255 240 99 51 49 34 28 28 21 18 9 8 360 354 341 336 324 319 312 304 266 270 250 185 159 162 170 173 130 75 73 143 136 93 109 155 157 159 151 156 162 160 158 153 151 149 151 207 143 144 146 142 135 140 143 144 143 142 138 141 144 139 136 148 139 143 142 138 126
251 245 263 254 271 301 294 333 314 293 221 260 221 245 242 246 256 277 280 286 299 295 290 255 238 232 236 230 247 48 62 59 43 35 25 27 22 12 11 6 357 350 334 321 314 303 299 293 293 244 255 221 179 172 177 148 130 100 71 43 42 136 113 66 129 148 157 164 158 162 156 146 139 145 149 135 131 121 118 131 135 145 141 135 138 139 136 136 141 139 135 127 125 132 142 145 141
276 286 292 284 284 281 291 299 310 311 313 245 266 276 281 277 266 256 251 247 259 271 265 270 273 266 265 29 62 64 62 57 44 35 34 26 24 16 4 6 356 345 340 344 338 326 310 301 291 262 249 264 192 164 131 129 126 100 58 74 51 47 80 87 81 142 147 143 160 153 152 144 141 147 141 135 133 112 116 116 135 144 142 144 145 146 140 143 142 135 132 125 105 111 136 140 135
273 277 279 291 291 284 276 284 295 305 298 295 286 279 280 282 284 281 290 297 286 284 285 285 283 301 59 73 66 66 58 58 49 41 33 32 23 14 15 356 1 352 352 353 343 338 327 311 297 295 223 221 269 115 110 112 126 119 108 58 61 46 40 79 80 136 129 143 146 144 149 146 145 143 134 138 144 146 144 147 147 148 146 146 151 156 156 156 152 136 135 130 105 68 76 105 111
269 264 258 258 268 276 279 281 289 288 290 275 276 275 277 283 288 305 298 290 284 279 276 267 291 72 69 68 63 62 64 50 47 40 35 29 23 19 12 7 1 3 3 353 347 338 330 323 321 310 314 249 210 137 133 128 118 111 107 114 102 61 37 33 40 20 99 111 120 128 132 123 129 134 138 140 151 145 140 139 141 147 148 154 162 164 150 143 146 138 130 128 129 116 69 98 112
289 299 305 295 288 282 288 285 288 287 276 277 282 294 292 289 287 275 270 264 262 280 305 14 84 73 70 60 63 53 57 60 37 35 29 26 24 19 17 9 11 5 359 353 347 343 330 327 332 331 326 311 240 123 115 113 109 117 121 112 97 90 94 69 44 28 23 80 100 105 104 114 127 134 143 140 133 135 133 134 146 150 146 147 141 128 133 137 135 132 130 113 115 132 133 150 145
280 270 277 279 269 276 273 269 269 267 267 275 276 274 276 278 278 275 271 274 284 81 85 68 86 84 71 70 57 60 52 38 35 33 25 24 20 21 18 11 9 5 353 356 351 348 348 346 348 336 335 5 9 52 84 90 73 80 75 100 109 92 61 48 77 52 39 56 61 73 81 90 102 105 92 130 146 145 148 143 146 144 137 134 135 129 136 150 153 145 147 142 133 89 107 152 167
251 256 254 255 267 274 287 265 294 285 278 291 284 284 282 276 265 268 270 273 105 99 96 88 80 91 91 75 68 61 50 39 31 25 23 17 18 20 16 12 9 0 1 2 360 358 359 9 1 352 24 41 28 30 58 79 86 77 70 77 85 89 98 81 79 67 59 60 56 56 61 75 80 92 96 74 1 125 141 143 138 132 128 127 136 139 145 153 155 151 147 149 143 134 131 173 177
245 241 246 258 261 256 264 284 274 283 280 293 294 281 273 265 267 261 66 101 105 97 92 91 80 85 88 83 71 56 58 48 36 33 24 19 19 19 16 13 9 8 6 4 4 5 4 5 10 15 20 29 37 27 34 67 92 87 87 84 94 90 79 86 91 64 69 77 75 57 52 61 84 96 89 72 61 31 88 126 129 123 123 127 129 134 145 154 157 151 149 150 162 153 150 135 101
256 246 256 262 263 271 272 277 301 312 287 256 268 280 266 274 253 253 151 124 101 104 93 90 101 79 77 81 77 69 66 50 51 43 27 28 19 16 21 15 14 11 8 2 0 9 9 10 15 18 24 24 23 21 8 3 79 116 120 135 102 83 107 135 177 156 119 98 104 95 69 65 75 73 75 102 90 67 57 76 102 120 128 123 122 126 126 117 121 128 107 117 117 109 141 134 171
261 242 228 252 271 280 320 305 315 274 275 286 132 254 283 256 264 266 164 138 128 141 114 113 102 100 87 83 74 75 57 54 61 44 39 31 23 19 23 20 15 14 10 359 5 10 16 18 20 24 26 26 22 23 23 13 27 37 43 56 57 86 119 127 94 93 111 100 101 93 86 70 66 74 60 64 87 84 76 62 90 114 111 105 104 107 116 123 119 118 116 124 137 128 130 140 158
251 300 320 34 304 287 286 292 272 278 288 275 262 267 284 283 261 243 251 162 165 140 134 118 106 104 102 83 86 74 63 67 53 51 43 35 29 23 25 22 18 17 7 8 10 12 20 20 20 25 28 27 25 21 26 25 31 27 29 50 56 43 69 63 69 82 78 81 81 82 85 74 77 76 82 72 79 89 85 82 78 97 102 101 107 121 128 123 113 115 126 131 126 133 146 148 160
251 238 260 257 331 295 300 293 278 273 293 276 242 237 263 260 267 239 232 209 174 166 148 139 120 111 100 95 88 79 87 67 61 51 45 37 30 30 25 26 23 17 14 16 14 14 20 22 20 26 30 29 22 20 23 24 29 38 43 35 54 50 61 67 71 65 69 70 81 85 85 85 72 78 87 83 71 72 83 106 135 133 124 114 108 116 119 127 139 144 146 134 152 151 147 161 147
269 43 5 271 248 266 257 265 270 271 264 265 254 225 262 268 261 255 205 229 185 164 148 133 130 120 114 102 85 97 85 78 60 60 47 43 36 32 30 27 27 22 15 19 18 21 22 22 25 26 28 27 24 22 21 22 26 30 40 37 42 43 47 57 63 71 72 78 86 83 90 79 85 87 90 94 80 72 75 149 169 132 126 109 104 109 113 120 130 138 147 151 151 169 173 166 163
309 293 325 299 282 267 248 237 242 263 246 251 256 236 234 275 262 224 238 248 153 134 123 126 125 123 108 97 104 88 93 75 70 62 51 45 44 33 33 33 26 23 21 18 24 24 24 27 26 30 27 28 26 28 26 25 26 25 35 36 37 37 40 40 33 39 70 76 84 110 101 95 105 115 105 84 86 91 143 156 111 74 83 90 92 82 96 120 133 134 143 138 152 165 175 159 152
62 348 307 317 274 240 239 234 217 236 253 248 216 226 229 253 261 163 13 357 134 152 160 156 151 137 127 119 101 94 80 79 67 63 49 41 35 36 34 32 27 26 22 23 21 24 27 28 29 32 28 27 29 29 30 30 30 27 26 29 37 32 34 43 45 37 24 25 27 33 60 84 86 84 81 85 99 137 153 120 91 78 82 90 92 96 84 76 90 94 101 128 154 166 170 154 174
210 198 215 227 275 294 267 213 221 221 245 267 228 228 244 237 275 140 153 106 67 90 145 150 141 133 123 114 108 92 82 75 76 64 57 43 37 35 32 30 30 25 30 24 24 24 27 28 29 34 31 26 31 29 35 34 34 31 27 28 32 32 32 34 37 38 31 38 38 41 39 39 36 39 40 62 120 145 143 122 117 114 109 113 119 112 120 125 121 135 155 155 164 182 200 197 197
197 199 193 215 238 238 253 242 249 255 253 238 237 116 254 274 194 138 131 99 79 65 84 106 121 123 121 114 104 95 84 84 72 68 63 53 50 41 40 38 32 33 32 31 27 31 30 31 30 36 34 29 29 33 33 36 35 33 31 32 30 31 36 34 33 31 29 38 42 41 38 32 36 32 25 24 2 4 48 61 89 82 83 88 92 101 109 121 137 129 140 152 175 179 177 201 211
203 203 202 217 222 220 253 239 239 250 273 6 96 69 220 122 209 88 113 106 89 80 81 84 94 103 106 107 104 100 96 74 76 72 63 65 54 51 49 41 37 36 36 34 33 33 35 36 35 36 35 31 31 32 35 36 34 31 33 35 37 35 35 36 34 32 31 35 37 37 34 31 30 23 23 13 15 16 13 34 77 86 88 92 93 99 101 98 97 97 106 127 128 147 154 176 252
213 201 239 236 234 250 255 277 286 304 309 294 220 207 244 208 95 91 104 104 107 108 106 118 116 123 126 120 108 99 90 96 87 79 76 66 61 53 54 48 44 41 40 39 38 36 37 37 39 41 41 37 35 34 36 36 35 34 33 34 35 38 41 41 38 31 32 34 35 37 34 31 29 25 23 20 17 20 20 15 22 65 72 66 63 67 73 88 91 86 79 103 143 168 165 193 218
241 176 219 238 5 254 273 280 269 277 265 255 241 260 248 71 177 122 131 120 132 138 142 139 140 142 133 119 116 109 109 103 94 88 77 73 66 66 54 56 52 48 46 44 43 41 41 42 41 43 42 41 40 38 37 36 36 37 36 36 32 34 37 39 39 37 35 32 34 34 34 30 28 29 24 22 21 23 24 24 27 22 28 53 59 49 47 50 61 80 95 87 127 173 160 199 236
335 238 281 25 192 163 223 268 291 257 257 266 248 253 244 151 257 170 154 174 161 170 162 152 147 148 135 128 124 119 112 105 104 95 90 84 82 73 70 63 62 57 50 49 47 43 46 46 47 48 44 43 40 38 38 35 35 37 36 36 36 36 35 35 36 37 33 35 34 34 32 32 29 23 23 22 26 28 25 28 28 26 24 26 25 27 29 30 23 27 21 29 14 21 16 237 210
231 239 65 164 259 314 208 214 238 240 249 265 253 262 260 237 236 147 195 192 181 173 165 156 158 162 141 131 123 123 123 121 108 105 98 93 84 85 76 68 64 65 61 56 49 49 47 47 48 49 50 49 47 47 44 43 41 42 39 38 38 38 37 36 36 37 36 35 32 30 34 33 31 26 26 24 26 26 29 29 31 29 27 25 22 20 16 14 26 31 18 17 354 354 347 336 325
228 261 256 207 286 247 253 238 325 261 258 264 264 248 259 217 358 183 198 190 168 161 166 171 164 156 140 138 141 137 132 120 118 108 104 98 96 89 86 79 67 62 66 58 54 50 51 49 47 50 51 49 48 47 45 47 45 46 44 43 42 41 40 40 36 35 38 37 31 28 28 31 29 28 26 27 28 27 26 28 27 30 28 25 26 21 19 15 15 20 14 18 1 25 10 352 334
201 211 242 211 236 241 275 265 242 245 281 272 293 276 268 347 308 286 186 169 167 166 165 161 162 144 139 140 141 136 125 124 116 112 109 108 102 96 88 88 80 74 64 65 60 56 54 50 52 49 51 50 51 48 48 48 46 44 44 43 42 40 42 41 40 38 40 37 35 28 28 27 28 30 24 26 26 26 26 24 24 23 24 20 18 19 19 19 24 20 17 10 5 5 12 351 347
235 202 218 206 217 227 229 252 202 218 238 251 261 262 278 44 335 6 92 132 139 149 147 149 146 136 139 136 132 130 125 116 115 115 115 109 102 94 91 84 87 73 64 62 60 59 56 53 49 49 50 51 51 52 50 51 49 49 49 46 43 41 42 40 41 39 39 37 33 32 25 25 31 26 26 22 24 22 21 24 25 23 20 20 15 12 15 12 20 20 16 21 13 9 1 333 292